This is the latest recevied weather packets stored in our database for station/object HB9FHL-13. If no packets are shown the sender has not sent any weather packets the latest 10 day(s).
| Time | Temp. | Humidity | Pressure | Rain* | Wind** | Luminosity | Snow |
|---|---|---|---|---|---|---|---|
| 1777933168 | 11.67° C | - | 1012 hPa | 0 mm | - | - | - |
| 1777932868 | 11.11° C | - | 1015.7 hPa | 0 mm | - | - | - |
| 1777932568 | 12.22° C | - | 1013.4 hPa | 0 mm | - | - | - |
| 1777932267 | 11.67° C | - | 1013.9 hPa | 0 mm | - | - | - |
| 1777931966 | 11.67° C | - | 1014.2 hPa | 0 mm | - | - | - |
| 1777931670 | 12.78° C | - | 1015.6 hPa | 0 mm | - | - | - |
| 1777931363 | 12.22° C | - | 1013 hPa | 0 mm | - | - | - |
| 1777931063 | 12.22° C | - | 1011.5 hPa | 0 mm | - | - | - |
| 1777930763 | 12.22° C | - | 1017.6 hPa | 0 mm | - | - | - |
| 1777930460 | 12.22° C | - | 1011.9 hPa | 0 mm | - | - | - |
| 1777930160 | 12.22° C | - | 1013.4 hPa | 0 mm | - | - | - |
| 1777929859 | 12.22° C | - | 1014.3 hPa | 0 mm | - | - | - |
| 1777929564 | 11.67° C | - | 1013.5 hPa | 0 mm | - | - | - |
| 1777929258 | 12.78° C | - | 1011.6 hPa | 0 mm | - | - | - |
| 1777928958 | 12.78° C | - | 1013.2 hPa | 0 mm | - | - | - |
| 1777928658 | 11.11° C | - | 1013.6 hPa | 0 mm | - | - | - |
| 1777928357 | 11.67° C | - | 1015.4 hPa | 0 mm | - | - | - |
| 1777928056 | 12.22° C | - | 1015.9 hPa | 0 mm | - | - | - |
| 1777927755 | 12.22° C | - | 1014.4 hPa | 0 mm | - | - | - |
| 1777927455 | 11.67° C | - | 1015 hPa | 0 mm | - | - | - |
| 1777927154 | 11.67° C | - | 1012.6 hPa | 0 mm | - | - | - |
| 1777926853 | 11.67° C | - | 1009.6 hPa | 0 mm | - | - | - |
| 1777926552 | 11.67° C | - | 1009.1 hPa | 0 mm | - | - | - |
| 1777926252 | 11.67° C | - | 1012.9 hPa | 0 mm | - | - | - |
| 1777925951 | 11.67° C | - | 1016.4 hPa | 0 mm | - | - | - |
* Rain since midnight (hover to see other rain measurements)
** Current wind speed in m/s (hover to see current wind gust speed)